User: anonymous   Login
Location: Kailua
(21.4020°N, 157.7390°W)
Time: 08:35:05
(UTC-10:00)
Language:

Cosmos 2297 Rocket - Orbit

View from above orbital plane
View from above orbital plane
View from above satellite
View from above satellite

Ground track
Ground track

The orbit data is extracted from the following two-line orbital elements,

1 23405U 94077B   14302.79400124  .00000083  00000-0  67510-4 0  9778
2 23405 070.9849 076.6517 0004370 311.9214 198.0316 14.15121016 29506
Epoch (UTC): 29 October 2014 19:03:21
Eccentricity: 0.0004370
inclination: 70.9849°
perigee height: 839 km
apogee height: 845 km
right ascension of ascending node: 76.6517°
argument of perigee: 311.9214°
revolutions per day: 14.15121016
mean anomaly at epoch: 198.0316°
orbit number at epoch: 2950

The dashed part of the orbit path shows where the satellite is in the earth's shadow,  

DLR